FW0045 Weather Reports


Display with metric or nautical units.
time (UTC)temp
F
wind
direction
speed
MPH
gust
MPH
rain 1hr
in
rain 24hr
in
rain mn
in
humidity
%
barometer
mb
20180121005455 76 45 0.0 2.0 0.00 0.00 0.00 92 1008.0
20180121003948 76 30 0.0 2.0 0.00 0.00 0.00 90 1008.0
20180121002446 76 26 0.0 1.0 0.00 0.00 0.00 89 1007.8
20180121000958 75 26 0.0 2.0 0.00 0.00 0.00 90 1007.6
20180120235458 75 28 1.0 3.0 0.00 0.00 0.00 90 1007.5
20180120233949 75 360 0.0 3.0 0.00 0.00 0.00 92 1007.3
20180120232443 75 292 0.0 3.0 0.00 0.00 0.00 91 1007.0
20180120230959 75 261 1.0 6.0 0.00 0.00 0.00 93 1006.9
20180120225452 75 331 3.0 9.0 0.00 0.00 0.00 93 1006.8
20180120223942 75 293 3.0 10.0 0.00 0.00 0.00 94 1006.7
20180120222448 75 281 3.0 11.0 0.00 0.00 0.00 94 1006.5
20180120220945 75 15 4.0 9.0 0.00 0.00 0.00 94 1006.3
20180120215356 75 360 1.0 4.0 0.00 0.00 0.00 94 1006.3
20180120213946 75 300 1.0 4.0 0.00 0.00 0.00 94 1006.5
20180120212403 75 360 0.0 4.0 0.00 0.00 0.00 94 1006.2
20180120210850 75 10 2.0 5.0 0.00 0.00 0.00 94 1006.2
20180120205351 75 292 0.0 4.0 0.00 0.00 0.00 94 1006.3
20180120202357 75 355 4.0 11.0 0.00 0.00 0.00 94 1006.0
20180120200855 75 324 4.0 12.0 0.00 0.00 0.00 94 1005.7
20180120195349 76 360 7.0 12.0 0.00 0.00 0.00 94 1005.7
20180120193845 76 350 7.0 11.0 0.00 0.00 0.00 93 1006.0
20180120192358 76 360 5.0 9.0 0.00 0.00 0.00 93 1006.0
20180120190853 76 355 5.0 10.0 0.00 0.00 0.00 93 1006.0
20180120185353 76 14 4.0 8.0 0.00 0.00 0.00 93 1006.2
20180120183845 76 13 5.0 10.0 0.00 0.00 0.00 93 1006.5
20180120182359 76 360 5.0 9.0 0.00 0.00 0.00 93 1006.7
20180120180849 76 5 5.0 12.0 0.00 0.00 0.00 93 1006.7
20180120175348 76 15 5.0 10.0 0.00 0.00 0.00 93 1006.9
20180120173857 76 37 5.0 9.0 0.00 0.00 0.00 93 1006.9
20180120172348 76 355 6.0 10.0 0.00 0.00 0.00 93 1006.9
20180120170845 76 5 4.0 8.0 0.00 0.00 0.00 93 1007.2
20180120165341 76 15 4.0 8.0 0.00 0.00 0.00 93 1007.5
20180120163800 76 16 1.0 5.0 0.00 0.00 0.00 93 1007.7
20180120162252 76 345 3.0 5.0 0.00 0.00 0.00 93 1007.8
20180120160852 76 14 2.0 5.0 0.00 0.00 0.00 93 1007.9
20180120155344 76 34 0.0 4.0 0.00 0.00 0.00 93 1008.1
20180120153750 76 360 0.0 3.0 0.00 0.00 0.00 93 1008.1
20180120152340 76 360 3.0 4.0 0.00 0.00 0.00 93 1008.0
20180120150751 76 346 2.0 6.0 0.00 0.00 0.00 92 1008.1
20180120145250 76 42 2.0 6.0 0.00 0.00 0.00 93 1007.9
20180120143757 76 5 2.0 8.0 0.00 0.00 0.00 93 1007.8
20180120142243 76 342 2.0 6.0 0.00 0.00 0.00 92 1007.9
20180120140756 76 40 0.0 0.0 0.00 0.00 0.00 92 1007.8
20180120135253 76 40 0.0 0.0 0.00 0.00 0.00 92 1007.4
20180120133742 76 40 0.0 2.0 0.00 0.00 0.00 92 1007.3
20180120132250 75 23 2.0 8.0 0.00 0.00 0.00 93 1006.9
20180120130746 76 5 3.0 8.0 0.00 0.00 0.00 92 1006.6
20180120125241 76 5 5.0 8.0 0.00 0.00 0.00 92 1006.6
20180120123745 76 24 3.0 6.0 0.00 0.00 0.00 92 1006.6
20180120122243 76 51 0.0 2.0 0.00 0.00 0.00 91 1006.6
20180120120757 76 35 3.0 10.0 0.00 0.00 0.00 90 1006.3
20180120115255 76 21 8.0 12.0 0.00 0.00 0.00 90 1006.4
20180120113740 76 5 7.0 12.0 0.00 0.00 0.00 91 1006.3
20180120112255 76 46 4.0 8.0 0.00 0.00 0.00 91 1006.2
20180120110745 76 32 0.0 0.0 0.00 0.00 0.00 92 1006.1
20180120105258 77 32 0.0 0.0 0.00 0.00 0.00 92 1006.0
20180120103751 77 46 0.0 2.0 0.00 0.00 0.00 91 1006.0
20180120102247 76 84 0.0 4.0 0.00 0.00 0.00 92 1005.6
20180120100751 77 84 0.0 4.0 0.00 0.00 0.00 91 1005.4
20180120095248 77 104 0.0 6.0 0.00 0.00 0.00 91 1005.0
20180120093757 77 142 2.0 6.0 0.00 0.00 0.00 90 1005.1
20180120092352 78 112 0.0 6.0 0.00 0.00 0.00 90 1005.2
20180120090759 78 69 0.0 7.0 0.00 0.00 0.00 88 1005.0
20180120085154 78 134 3.0 7.0 0.00 0.00 0.00 87 1004.9
20180120083659 80 182 1.0 6.0 0.00 0.00 0.00 84 1004.7
20180120082253 79 176 4.0 11.0 0.00 0.00 0.00 84 1004.7
20180120080742 82 188 7.0 12.0 0.00 0.00 0.00 83 1004.7
20180120075201 83 194 2.0 9.0 0.00 0.00 0.00 81 1004.6
20180120073655 86 333 0.0 3.0 0.00 0.00 0.00 73 1004.5
20180120072149 86 340 2.0 6.0 0.00 0.00 0.00 71 1004.8
20180120070658 86 19 5.0 10.0 0.00 0.00 0.00 71 1004.8
20180120065156 87 17 5.0 8.0 0.00 0.00 0.00 71 1005.0
20180120063649 86 253 2.0 4.0 0.00 0.00 0.00 74 1005.4
20180120062149 85 248 1.0 3.0 0.00 0.00 0.00 75 1005.7
20180120060640 85 13 0.0 3.0 0.00 0.00 0.00 76 1005.9
20180120055155 85 360 0.0 3.0 0.00 0.00 0.00 77 1006.2
20180120053643 84 355 0.0 4.0 0.00 0.00 0.00 78 1006.4
20180120052152 87 140 0.0 6.0 0.00 0.00 0.00 75 1006.7
20180120050650 85 298 4.0 7.0 0.00 0.00 0.00 77 1006.9
20180120045141 84 282 5.0 8.0 0.00 0.00 0.00 78 1007.2
20180120043657 84 19 1.0 7.0 0.00 0.00 0.00 79 1007.3
20180120042143 84 20 0.0 3.0 0.00 0.00 0.00 78 1007.6
20180120040655 83 54 1.0 5.0 0.00 0.00 0.00 79 1007.5
20180120035155 84 17 1.0 4.0 0.00 0.00 0.00 79 1007.7
20180120033645 84 5 0.0 5.0 0.00 0.00 0.00 80 1007.8
20180120032158 84 106 1.0 5.0 0.00 0.00 0.00 79 1008.0
20180120030652 82 26 2.0 5.0 0.00 0.00 0.00 81 1008.0
20180120025145 82 355 0.0 8.0 0.00 0.00 0.00 82 1008.1
20180120023643 81 321 0.0 8.0 0.00 0.00 0.00 82 1008.1
20180120022150 81 29 3.0 8.0 0.00 0.00 0.00 83 1008.2
20180120020648 80 57 0.0 5.0 0.00 0.00 0.00 86 1008.1
20180120015156 78 19 3.0 6.0 0.00 0.00 0.00 88 1008.0
20180120013754 78 37 4.0 6.0 0.00 0.00 0.00 88 1008.3
20180120012146 77 43 3.0 6.0 0.00 0.00 0.00 91 1008.2
20180120010538 76 5 2.0 6.0 0.00 0.00 0.00 92 1008.2